Meath Environmental Platform

Observations for Trim Market St

Time AQI Temp °C Hum % Pres Pa CO μg/m³ H₂S μg/m³ NO μg/m³ NO₂ μg/m³ O₃ μg/m³ SO₂ μg/m³ PM1 μg/m³ PM2.5 μg/m³ PM10 μg/m³
Tuesday 14 July 2026
06:30 1 17 77 31,608 0.23 0 0 5.16 18.69 0 1.43 3.22 5.77
06:29 1 17 77 31,068 0.23 0 0 4.95 15.3 0 2.85 3.69 6.36
06:28 1 16.9 77 30,608 0.25 0 0 6.57 18.48 0 3.56 5.12 8.12
06:27 1 16.9 77 30,177 0.22 0 0 5.27 17.65 0 2.85 4.16 6.94
06:26 1 16.9 77 29,736 0.24 0 0 5.26 16.78 0 3.56 3.68 7.53
06:25 1 16.8 77 29,445 0.23 0 0 4.88 17.71 0 2.85 4.16 6.95
06:24 1 16.7 77 29,173 0.24 0 1.97 4.91 20.14 0 3.56 5.59 8.7
06:23 1 16.7 77 29,037 0.26 0 1.7 5.3 18.74 0 3.56 5.58 9.87
06:22 1 16.7 77 28,948 0.21 0 0 4.3 19.32 0 2.14 3.68 6.36
06:21 1 16.6 77 28,888 0.21 0 0 6.43 25.7 0 2.85 4.63 10.46
06:15 1 16.4 77 29,196 0.2 0 0 6.28 20.13 0 2.14 3.2 7.53
06:13 1 16.4 77 29,238 0.19 0 0 5.28 16.64 0 2.14 4.15 7.53
06:09 1 16.3 77 29,294 0.19 0 0 6.11 12.87 0 1.43 2.25 6.95
06:07 1 16.3 77 29,349 0.22 0 0.94 6.81 15.47 0 3.56 5.1 8.12
06:03 1 16.2 77 29,501 0.16 0 0 5.13 18.46 0 1.43 4.15 6.95
06:01 1 16.2 77 29,768 0.16 0 0 3.53 18.13 0 2.85 4.15 6.95
06:00 1 16.2 77 29,802 0.16 0 0 4.35 17.61 0 2.14 3.68 6.36
05:58 1 16.1 77 29,909 0.16 0 2.82 6.97 13.15 0 2.85 4.16 7.53
05:56 1 16.1 77 29,963 0.16 0 0 3.77 18.38 0 2.14 4.16 7.53
05:55 1 16.1 77 30,030 0.17 0 0 4.17 18.17 0 2.85 4.63 7.53